Tracking 19709 objects as of 19-Jun-2019
HD Live streaming from Space Station
objects crossing your sky now

RAINCUBE

Track RAINCUBE now!
10-day predictions


NORAD ID: 43548
Int'l Code: 1998-067NW
Perigee: 386.7 km
Apogee: 394.7 km
Inclination: 51.6 °
Period: 92.2 minutes
Semi major axis: 6761 km
RCS: Unknown
Launch date: November 20, 1998
Source: United States (US)
Launch site: TYURATAM MISSILE AND SPACE COMPLEX (TTMTR)
aabbcc
Your satellite tracking list
Your tracking list is empty




NASA's NSSDC Master Catalog

Two Line Element Set (TLE):
1 43548U 98067NW  19170.11094449  .00008586  00000-0  10458-3 0  9992
2 43548  51.6376 340.5973 0005892 136.6064 223.5394 15.61409948 53143
Source of the keplerian elements: AFSPC